[[{"header":{"parameterUnit":"m.s-1","parameterCategory":2,"la1":30.2992,"la2":30.254,"lo1":-89.0895,"lo2":-89.0443,"dy":0.0025,"dx":0.0025,"nx":19,"ny":19,"refTime":"2026-04-17T09:00:00:Z","depth":"0","parameterNumber":2,"parameterNumberName":"U-component_of_CURRENTS"},"data":[0,0,0,-0.1501,-0.1501,-0.149,-0.1489,-0.139,-0.1389,0,0,0,0,0,0,0,0,0,0,0,-0.1476,-0.1476,-0.1501,-0.1501,-0.149,-0.1489,-0.139,-0.1389,0,0,0,0,0,0,0,0,0,0,0,-0.1476,-0.1476,-0.1475,-0.1502,-0.149,-0.1489,-0.139,-0.1416,0,0,0,0,0,0,0,0,0,0,-0.1436,-0.1421,-0.1476,-0.1475,-0.1502,-0.149,-0.1489,-0.1418,-0.1414,-0.1377,0,-0.1367,0,-0.1394,-0.1382,-0.1382,0,0,0,-0.1483,-0.1424,-0.1439,-0.1475,-0.1502,-0.149,-0.149,-0.1416,-0.1412,-0.1372,-0.1366,-0.1363,-0.1392,-0.1381,-0.1381,-0.1246,-0.1246,0,0,-0.1484,-0.1456,-0.1442,-0.1437,-0.1486,-0.149,-0.149,-0.1414,-0.1391,-0.1365,-0.1362,-0.1391,-0.1381,-0.138,-0.1247,-0.1246,0,0,0,-0.1498,-0.1456,-0.1474,-0.1439,-0.1454,-0.149,-0.149,-0.1394,-0.1405,-0.1361,-0.1389,-0.138,-0.1379,-0.1248,-0.1247,-0.1162,0,0,0,-0.1497,-0.1467,-0.1474,-0.1455,-0.1456,-0.1435,-0.147,-0.1409,-0.1403,-0.139,-0.138,-0.1378,-0.1248,-0.1247,-0.1166,-0.1108,0,0,0,-0.1479,-0.1465,-0.1464,-0.1454,-0.1464,-0.1437,-0.1443,-0.1408,-0.1421,-0.1382,-0.1377,-0.1249,-0.1247,-0.1169,-0.1115,-0.0911,0,0,0,-0.1452,-0.1412,-0.1462,-0.1424,-0.1464,-0.1434,-0.1444,-0.1417,-0.1383,-0.1379,-0.1248,-0.1247,-0.117,-0.1119,-0.0918,-0.0515,-0.0451,0,0,-0.1387,-0.1402,-0.1384,-0.1431,-0.1384,-0.1436,-0.1348,-0.1322,-0.1341,-0.1266,-0.1263,-0.1164,-0.1115,-0.0913,-0.0419,-0.0357,0,0,0,-0.1356,-0.1327,-0.1324,-0.1312,-0.1327,-0.1284,-0.1289,-0.1264,-0.1207,-0.1319,-0.1154,-0.1125,-0.0999,-0.0771,-0.0722,-0.0565,-0.1239,-0.1239,-0.1239,-0.123,-0.125,-0.1185,-0.1191,-0.1175,-0.117,-0.1116,-0.1081,-0.113,-0.1092,-0.1049,-0.083,-0.0589,-0.0547,-0.0393,-0.1053,-0.1053,-0.1052,-0.1052,-0.1102,-0.1044,-0.1064,-0.1004,-0.1001,-0.0943,-0.0912,-0.0931,-0.0807,-0.0932,-0.0813,-0.0687,-0.0487,-0.0343,-0.1047,-0.1048,-0.1048,-0.1049,-0.1049,-0.0985,-0.0948,-0.0938,-0.0864,-0.0794,-0.08,-0.0652,-0.0705,-0.0691,-0.0624,-0.0296,-0.0294,-0.0161,-0.0542,-0.0541,-0.054,-0.0539,-0.0538,-0.0538,-0.0858,-0.0841,-0.0762,-0.0709,-0.0648,-0.0582,-0.0505,-0.0364,-0.0151,-0.0131,-0.0126,-0.0025,-0.0672,-0.0687,-0.052,-0.0523,-0.0525,-0.0527,-0.0528,-0.0668,-0.0705,-0.0577,-0.0512,-0.0374,-0.0206,-0.016,0.0275,0.0427,0.0649,0.0705,0.0182,0.0225,0.0189,0.0197,0.0583,0.0583,0.0583,0.0584,-0.0556,-0.0562,-0.039,-0.0256,-0.0104,-0.0013,0.0459,0.0779,0.1138,0.1332,0.124,0.1197,0.1145,0.1231,0.1171,0.1193,0.1824,0.1825,0.1826,-0.0432,-0.0411,-0.0241,-0.0138,0.004,0.0243,0.0707,0.1143,0.1698,0.1869,0.1382,0.133,0.1234,0.114,0.1232,0.1136,0.1153,0,0]},{"header":{"parameterUnit":"m.s-1","parameterCategory":2,"la1":30.2992,"la2":30.254,"lo1":-89.0895,"lo2":-89.0443,"dy":0.0025,"dx":0.0025,"nx":19,"ny":19,"refTime":"2026-04-17T09:00:00:Z","depth":"0","parameterNumber":3,"parameterNumberName":"V-component_of_CURRENTS"},"data":[0,0,0,0.0143,0.0144,0.0201,0.0201,0.0207,0.0207,0,0,0,0,0,0,0,0,0,0,0,0.0108,0.0108,0.0143,0.0145,0.0201,0.0201,0.0207,0.0207,0,0,0,0,0,0,0,0,0,0,0,0.0108,0.0108,0.0108,0.0145,0.0201,0.0201,0.0207,0.0178,0,0,0,0,0,0,0,0,0,0,0.0131,0.0094,0.0108,0.0108,0.0145,0.0201,0.0201,0.0177,0.018,0.0166,0,0.0174,0,0.0202,0.0207,0.0207,0,0,0,0.0133,0.0091,0.013,0.0108,0.0146,0.0201,0.0172,0.0179,0.0182,0.017,0.0175,0.0176,0.0202,0.0207,0.0207,0.0166,0.0166,0,0,0.013,0.0095,0.0128,0.0132,0.0158,0.017,0.0174,0.0182,0.0168,0.0175,0.0177,0.0202,0.0207,0.0207,0.0166,0.0166,0,0,0,0.0129,0.0092,0.0131,0.013,0.0152,0.0172,0.0176,0.0167,0.0187,0.0177,0.0202,0.0207,0.0207,0.0167,0.0166,0.0102,0,0,0,0.0126,0.0094,0.0129,0.0106,0.0152,0.0166,0.0161,0.0186,0.0188,0.0202,0.0207,0.0207,0.0167,0.0167,0.0105,0.0123,0,0,0,0.0105,0.0091,0.0102,0.0105,0.0139,0.0167,0.0186,0.0187,0.0204,0.0207,0.0207,0.0168,0.0167,0.0107,0.0126,0.0343,0,0,0,0.0062,0.0024,0.0101,0.0052,0.0139,0.0126,0.0186,0.0173,0.0167,0.0207,0.0167,0.0166,0.0108,0.0128,0.0341,0.0671,0.0708,0,0,-0.0017,0.0014,-0.0018,0.0052,0.0017,0.0117,0.0077,0.0108,0.0149,0.0159,0.0159,0.0104,0.0126,0.0342,0.0608,0.0649,0,0,0,-0.0065,-0.0076,-0.0082,-0.0075,-0.0049,-0.0006,0.0041,0.0071,0.0095,0.0148,0.01,0.0117,0.0257,0.045,0.048,0.0526,0.0161,0.0161,0.0162,-0.0171,-0.0156,-0.0201,-0.017,-0.017,-0.0096,-0.0063,-0.0003,0.0023,0.0031,0.0059,0.0172,0.0366,0.0396,0.0432,0.003,0.0029,0.0029,0.0029,-0.0249,-0.0256,-0.025,-0.0284,-0.0231,-0.0234,-0.0148,-0.0098,0.0051,-0.0,0.0141,0.0361,0.0427,0.0454,0.0025,0.0025,0.0026,0.0026,0.0027,-0.0271,-0.0274,-0.0294,-0.0316,-0.0318,-0.0274,-0.0123,-0.0075,0.0036,0.0119,0.0532,0.0537,0.0587,0.0264,0.0265,0.0266,0.0266,0.0267,0.0268,-0.026,-0.0286,-0.0308,-0.0339,-0.0339,-0.0275,-0.0067,0.0144,0.0472,0.0551,0.0557,0.0644,0.0249,0.0269,0.0283,0.028,0.0278,0.0277,0.0276,-0.0252,-0.0268,-0.0292,-0.0302,-0.0276,-0.0089,0.0096,0.0704,0.0959,0.121,0.115,0.0842,0.0954,0.0932,0.0972,0.1167,0.1167,0.1167,0.1168,-0.0231,-0.0249,-0.025,-0.0241,-0.017,0.0,0.0619,0.1128,0.153,0.165,0.153,0.147,0.1432,0.1563,0.1527,0.1575,0.1919,0.1919,0.192,-0.0204,-0.0215,-0.0191,-0.0201,-0.0127,0.019,0.081,0.147,0.1954,0.1935,0.1521,0.149,0.1367,0.1305,0.1474,0.142,0.1484,0,0]}],[{"header":{"parameterUnit":"m.s-1","parameterCategory":2,"la1":30.2992,"la2":30.254,"lo1":-89.0895,"lo2":-89.0443,"dy":0.0025,"dx":0.0025,"nx":19,"ny":19,"refTime":"2026-04-17T09:00:00:Z","depth":"2","parameterNumber":2,"parameterNumberName":"U-component_of_CURRENTS"},"data":[0,0,0,-0.1055,-0.1056,-0.1087,-0.1086,-0.1052,-0.1052,0,0,0,0,0,0,0,0,0,0,0,-0.1033,-0.1034,-0.1055,-0.1057,-0.1087,-0.1086,-0.1052,-0.1052,0,0,0,0,0,0,0,0,0,0,0,-0.1033,-0.1034,-0.1035,-0.1057,-0.1087,-0.1086,-0.1052,-0.104,0,0,0,0,0,0,0,0,0,0,-0.1017,-0.0976,-0.1034,-0.1035,-0.1057,-0.1087,-0.1086,-0.104,-0.1041,-0.1026,0,-0.1047,0,-0.1066,-0.105,-0.105,0,0,0,-0.1027,-0.0975,-0.1034,-0.1035,-0.1058,-0.1087,-0.1065,-0.1041,-0.1042,-0.1027,-0.1047,-0.1047,-0.1065,-0.105,-0.105,-0.1006,-0.1006,0,0,-0.1026,-0.0984,-0.1034,-0.1035,-0.1086,-0.1064,-0.1066,-0.1042,-0.1019,-0.1047,-0.1046,-0.1065,-0.105,-0.105,-0.1007,-0.1006,0,0,0,-0.1041,-0.0982,-0.1041,-0.1036,-0.1057,-0.1066,-0.1068,-0.1019,-0.1054,-0.1046,-0.1064,-0.105,-0.105,-0.1007,-0.1007,-0.0965,0,0,0,-0.1038,-0.0995,-0.1041,-0.1008,-0.1059,-0.1039,-0.1045,-0.1055,-0.1054,-0.1064,-0.105,-0.105,-0.1008,-0.1007,-0.0967,-0.0932,0,0,0,-0.1028,-0.0991,-0.1014,-0.1007,-0.1041,-0.1041,-0.1071,-0.1055,-0.1066,-0.105,-0.1049,-0.1008,-0.1007,-0.0968,-0.0935,-0.0816,0,0,0,-0.0959,-0.0963,-0.1012,-0.1,-0.1042,-0.1064,-0.1071,-0.1065,-0.1052,-0.105,-0.1008,-0.1007,-0.0969,-0.0937,-0.082,-0.0655,-0.0625,0,0,-0.0928,-0.0956,-0.0951,-0.0998,-0.1026,-0.1056,-0.1027,-0.1022,-0.1031,-0.1006,-0.1006,-0.0966,-0.0936,-0.0817,-0.061,-0.058,0,0,0,-0.0917,-0.0922,-0.0934,-0.0958,-0.1,-0.0999,-0.1012,-0.1,-0.0974,-0.1028,-0.0962,-0.0943,-0.0869,-0.0778,-0.0755,-0.1003,-0.1003,-0.1003,-0.1003,-0.0861,-0.0888,-0.0875,-0.0914,-0.0925,-0.0955,-0.0929,-0.0916,-0.0945,-0.0923,-0.0907,-0.0785,-0.0691,-0.067,-0.0913,-0.0913,-0.0913,-0.0912,-0.0912,-0.081,-0.0786,-0.0823,-0.0816,-0.0854,-0.0841,-0.0837,-0.0847,-0.0777,-0.0844,-0.0774,-0.0737,-0.0642,-0.0909,-0.091,-0.091,-0.091,-0.0911,-0.0911,-0.0739,-0.0727,-0.0732,-0.0728,-0.0734,-0.0766,-0.0698,-0.0729,-0.0711,-0.0674,-0.0525,-0.0524,-0.072,-0.0625,-0.0624,-0.0624,-0.0623,-0.0623,-0.0622,-0.0653,-0.066,-0.0628,-0.0637,-0.0635,-0.0625,-0.0611,-0.0539,-0.0444,-0.044,-0.0438,-0.0686,-0.0696,-0.0701,-0.0612,-0.0614,-0.0615,-0.0616,-0.0617,-0.0536,-0.0558,-0.0505,-0.0494,-0.0485,-0.0412,-0.0427,-0.0236,-0.015,-0.0049,-0.0277,-0.0288,-0.0266,-0.0284,-0.0279,-0.0085,-0.0085,-0.0085,-0.0085,-0.0465,-0.047,-0.0404,-0.037,-0.0328,-0.0311,-0.008,0.0044,0.0082,0.0062,0.0055,-0.001,-0.0032,-0.0003,-0.0028,-0.0022,0.024,0.024,0.024,-0.0397,-0.0394,-0.0323,-0.0304,-0.0264,-0.0165,0.0072,0.0326,0.0379,0.0242,-0.0006,-0.004,-0.0158,-0.0185,-0.0165,-0.0195,-0.0194,0,0]},{"header":{"parameterUnit":"m.s-1","parameterCategory":2,"la1":30.2992,"la2":30.254,"lo1":-89.0895,"lo2":-89.0443,"dy":0.0025,"dx":0.0025,"nx":19,"ny":19,"refTime":"2026-04-17T09:00:00:Z","depth":"2","parameterNumber":3,"parameterNumberName":"V-component_of_CURRENTS"},"data":[0,0,0,-0.0504,-0.0502,-0.0389,-0.0388,-0.0243,-0.0242,0,0,0,0,0,0,0,0,0,0,0,-0.0549,-0.0549,-0.0505,-0.0502,-0.0389,-0.0388,-0.0244,-0.0242,0,0,0,0,0,0,0,0,0,0,0,-0.055,-0.0549,-0.0548,-0.0502,-0.0389,-0.0388,-0.0244,-0.0327,0,0,0,0,0,0,0,0,0,0,-0.0437,-0.0499,-0.0549,-0.0548,-0.0501,-0.0389,-0.0388,-0.0331,-0.0322,-0.0297,0,-0.0287,0,-0.0262,-0.0233,-0.0233,0,0,0,-0.0494,-0.0507,-0.0459,-0.0548,-0.05,-0.0389,-0.0438,-0.0326,-0.0316,-0.0285,-0.0285,-0.0279,-0.0259,-0.0232,-0.0232,-0.0134,-0.0134,0,0,-0.05,-0.0542,-0.0466,-0.0453,-0.048,-0.0441,-0.0434,-0.032,-0.0324,-0.0285,-0.0276,-0.0257,-0.0231,-0.023,-0.0134,-0.0134,0,0,0,-0.0524,-0.0547,-0.0501,-0.0459,-0.0438,-0.0438,-0.043,-0.0329,-0.0309,-0.0274,-0.0255,-0.0231,-0.0229,-0.0134,-0.0134,-0.0151,0,0,0,-0.0527,-0.056,-0.0504,-0.053,-0.0441,-0.0387,-0.0442,-0.0317,-0.0303,-0.0256,-0.0231,-0.0228,-0.0134,-0.0134,-0.0151,-0.0167,0,0,0,-0.0553,-0.0563,-0.0549,-0.0532,-0.0483,-0.0388,-0.0361,-0.0313,-0.0292,-0.0233,-0.0227,-0.0134,-0.0134,-0.0151,-0.0166,-0.012,0,0,0,-0.06,-0.0581,-0.0551,-0.0534,-0.0485,-0.0411,-0.0362,-0.0309,-0.0264,-0.023,-0.0134,-0.0134,-0.0151,-0.0166,-0.012,-0.0118,-0.0116,0,0,-0.0596,-0.0582,-0.0571,-0.0541,-0.0485,-0.0426,-0.0363,-0.0287,-0.0251,-0.017,-0.0167,-0.0151,-0.0166,-0.012,-0.0107,-0.0106,0,0,0,-0.0583,-0.0573,-0.0553,-0.0521,-0.046,-0.0396,-0.0319,-0.0278,-0.0206,-0.0223,-0.0142,-0.0151,-0.0121,-0.012,-0.0119,-0.0133,-0.0133,-0.0133,-0.0133,-0.0616,-0.0584,-0.0562,-0.0508,-0.0467,-0.037,-0.0313,-0.0242,-0.0206,-0.0182,-0.0159,-0.013,-0.013,-0.0129,-0.0146,-0.0146,-0.0146,-0.0146,-0.0146,-0.0617,-0.0603,-0.0573,-0.0541,-0.0473,-0.0419,-0.0301,-0.0258,-0.0161,-0.0161,-0.0129,-0.0132,-0.0128,-0.0148,-0.0147,-0.0147,-0.0147,-0.0147,-0.0147,-0.0641,-0.0625,-0.0619,-0.0584,-0.0536,-0.0452,-0.0386,-0.0293,-0.0192,-0.0155,-0.0113,-0.0113,-0.0128,-0.0125,-0.0125,-0.0124,-0.0124,-0.0124,-0.0124,-0.0665,-0.0649,-0.0654,-0.0622,-0.0604,-0.056,-0.0435,-0.0354,-0.0209,-0.0132,-0.0131,-0.0121,-0.0122,-0.0126,-0.0122,-0.0123,-0.0123,-0.0123,-0.0123,-0.0663,-0.0681,-0.068,-0.0676,-0.0644,-0.0586,-0.0503,-0.032,-0.0219,-0.0127,-0.0096,-0.0098,-0.0083,-0.0084,-0.0086,-0.0072,-0.0072,-0.0072,-0.0072,-0.0676,-0.068,-0.0689,-0.0685,-0.0669,-0.0591,-0.0404,-0.0216,-0.0087,-0.0053,-0.0053,-0.0072,-0.0074,-0.006,-0.0061,-0.0063,-0.0043,-0.0043,-0.0043,-0.0675,-0.068,-0.0682,-0.0688,-0.0668,-0.0575,-0.0321,0.0031,0.0109,-0.0041,-0.0043,-0.0071,-0.0101,-0.0104,-0.0085,-0.0086,-0.009,0,0]}],[{"header":{"parameterUnit":"m.s-1","parameterCategory":2,"la1":30.2992,"la2":30.254,"lo1":-89.0895,"lo2":-89.0443,"dy":0.0025,"dx":0.0025,"nx":19,"ny":19,"refTime":"2026-04-17T09:00:00:Z","depth":"4","parameterNumber":2,"parameterNumberName":"U-component_of_CURRENTS"},"data":[0,0,0,-0.0447,-0.0449,-0.0576,-0.0576,-0.0653,-0.0653,0,0,0,0,0,0,0,0,0,0,0,-0.0414,-0.0415,-0.0446,-0.0449,-0.0576,-0.0576,-0.0653,-0.0653,0,0,0,0,0,0,0,0,0,0,0,-0.0414,-0.0415,-0.0416,-0.045,-0.0575,-0.0576,-0.0653,-0.058,0,0,0,0,0,0,0,0,0,0,-0.0469,-0.0443,-0.0414,-0.0416,-0.045,-0.0575,-0.0576,-0.0578,-0.0585,-0.0569,0,-0.0599,0,-0.0618,-0.0656,-0.0656,0,0,0,-0.0456,-0.0438,-0.0474,-0.0416,-0.0451,-0.0575,-0.0521,-0.0583,-0.059,-0.0578,-0.06,-0.0604,-0.062,-0.0656,-0.0656,-0.0688,-0.0688,0,0,-0.0449,-0.0431,-0.0469,-0.0479,-0.0496,-0.0517,-0.0524,-0.0588,-0.0597,-0.0601,-0.0606,-0.0621,-0.0657,-0.0657,-0.0688,-0.0688,0,0,0,-0.0425,-0.0426,-0.0463,-0.0475,-0.05,-0.052,-0.0529,-0.0595,-0.0609,-0.0607,-0.0622,-0.0657,-0.0657,-0.0688,-0.0688,-0.0715,0,0,0,-0.0421,-0.0411,-0.046,-0.045,-0.05,-0.0559,-0.0534,-0.0605,-0.0612,-0.0621,-0.0657,-0.0658,-0.0688,-0.0688,-0.0714,-0.069,0,0,0,-0.0406,-0.0409,-0.0429,-0.0449,-0.05,-0.0558,-0.0577,-0.0608,-0.062,-0.0656,-0.0658,-0.0688,-0.0688,-0.0713,-0.069,-0.0625,0,0,0,-0.0376,-0.0421,-0.0429,-0.0486,-0.0499,-0.0576,-0.0577,-0.0635,-0.067,-0.0657,-0.0688,-0.0688,-0.0713,-0.069,-0.0626,-0.0515,0,0,0,-0.0415,-0.0425,-0.046,-0.047,-0.0541,-0.0558,-0.0623,-0.0666,-0.0661,-0.0662,-0.0664,-0.0714,-0.069,-0.0625,-0.0526,0,0,0,0,-0.0461,-0.0483,-0.051,-0.0552,-0.06,-0.0636,-0.0677,-0.0677,-0.0695,-0.0681,-0.071,-0.0693,-0.0651,-0.059,-0.0689,-0.0689,-0.0689,-0.0689,-0.0689,-0.0469,-0.0503,-0.0552,-0.06,-0.0643,-0.0689,-0.0706,-0.0704,-0.0718,-0.0718,-0.0713,-0.0676,-0.0617,-0.0729,-0.0729,-0.0729,-0.0729,-0.073,-0.073,-0.0501,-0.0523,-0.0563,-0.0619,-0.0653,-0.0697,-0.072,-0.0726,-0.0694,-0.072,-0.0678,-0.0623,-0.0732,-0.0732,-0.0731,-0.0731,-0.0731,-0.0731,-0.073,-0.0487,-0.0499,-0.0535,-0.0586,-0.0632,-0.0685,-0.0664,-0.0692,-0.0683,-0.0668,-0.0554,-0.0657,-0.0651,-0.0642,-0.0641,-0.0641,-0.0641,-0.064,-0.064,-0.0441,-0.048,-0.0488,-0.055,-0.0571,-0.0595,-0.0618,-0.0584,-0.0597,-0.0532,-0.0651,-0.0644,-0.0647,-0.0644,-0.0634,-0.0635,-0.0636,-0.0637,-0.0637,-0.0416,-0.0413,-0.0427,-0.0439,-0.0476,-0.049,-0.052,-0.0441,-0.0376,-0.0324,-0.0441,-0.0452,-0.0409,-0.0417,-0.0404,-0.0323,-0.0322,-0.032,0,-0.0366,-0.0376,-0.036,-0.0361,-0.0359,-0.0422,-0.0313,-0.0295,-0.0293,-0.0281,-0.0395,-0.0532,-0.0538,-0.0498,-0.0502,-0.0491,0,0,0,-0.0325,-0.0329,-0.0299,-0.0312,-0.0311,-0.028,-0.0285,-0.0235,-0.0307,-0.0212,-0.0282,-0.0292,-0.0517,-0.0618,-0.0576,-0.058,-0.0571,0,0]},{"header":{"parameterUnit":"m.s-1","parameterCategory":2,"la1":30.2992,"la2":30.254,"lo1":-89.0895,"lo2":-89.0443,"dy":0.0025,"dx":0.0025,"nx":19,"ny":19,"refTime":"2026-04-17T09:00:00:Z","depth":"4","parameterNumber":3,"parameterNumberName":"V-component_of_CURRENTS"},"data":[0,0,0,-0.0445,-0.0444,-0.0366,-0.0365,-0.0255,-0.0254,0,0,0,0,0,0,0,0,0,0,0,-0.0469,-0.0468,-0.0445,-0.0444,-0.0366,-0.0365,-0.0255,-0.0254,0,0,0,0,0,0,0,0,0,0,0,-0.0469,-0.0469,-0.0468,-0.0444,-0.0366,-0.0365,-0.0255,-0.0313,0,0,0,0,0,0,0,0,0,0,-0.0388,-0.0434,-0.0469,-0.0468,-0.0444,-0.0366,-0.0365,-0.0316,-0.0309,-0.0292,0,-0.0288,0,-0.0277,-0.0248,-0.0248,0,0,0,-0.0428,-0.0439,-0.0406,-0.0468,-0.0443,-0.0366,-0.0397,-0.0312,-0.0305,-0.0284,-0.0286,-0.0282,-0.0275,-0.0247,-0.0247,-0.0145,-0.0145,0,0,-0.0432,-0.0463,-0.0411,-0.0401,-0.0432,-0.0399,-0.0394,-0.0308,-0.0312,-0.0286,-0.0279,-0.0273,-0.0247,-0.0246,-0.0145,-0.0145,0,0,0,-0.0455,-0.0466,-0.0435,-0.0406,-0.0397,-0.0397,-0.0392,-0.0315,-0.0302,-0.0278,-0.0272,-0.0246,-0.0245,-0.0146,-0.0145,-0.0151,0,0,0,-0.0457,-0.0481,-0.0437,-0.0456,-0.0399,-0.0362,-0.0402,-0.0307,-0.0297,-0.0272,-0.0246,-0.0244,-0.0146,-0.0145,-0.0152,-0.0169,0,0,0,-0.0471,-0.0483,-0.0473,-0.0457,-0.043,-0.0363,-0.0343,-0.0305,-0.0294,-0.0247,-0.0244,-0.0147,-0.0146,-0.0153,-0.0169,-0.0174,0,0,0,-0.0504,-0.0491,-0.0474,-0.0456,-0.0431,-0.0367,-0.0344,-0.0298,-0.0259,-0.0246,-0.0146,-0.0145,-0.0153,-0.0169,-0.0174,-0.0172,0,0,0,-0.05,-0.0492,-0.0476,-0.0459,-0.0409,-0.0376,-0.0317,-0.0263,-0.0236,-0.0172,-0.017,-0.0152,-0.0169,-0.0174,-0.0112,0,0,0,0,-0.0482,-0.0475,-0.0454,-0.0427,-0.0378,-0.0331,-0.0278,-0.024,-0.0175,-0.0211,-0.0129,-0.014,-0.0143,-0.0141,-0.014,-0.014,-0.0141,-0.0141,-0.0141,-0.0514,-0.0478,-0.0454,-0.0406,-0.037,-0.0293,-0.0242,-0.0181,-0.016,-0.0128,-0.0127,-0.0113,-0.0107,-0.01,-0.01,-0.01,-0.01,-0.01,-0.01,-0.0508,-0.049,-0.0461,-0.0429,-0.0375,-0.0329,-0.0217,-0.018,-0.0108,-0.0097,-0.0099,-0.0125,-0.01,-0.01,-0.01,-0.01,-0.01,-0.01,-0.01,-0.0524,-0.051,-0.0503,-0.0471,-0.0431,-0.0358,-0.0292,-0.0211,-0.0135,-0.0114,-0.0123,-0.0119,-0.0139,-0.0126,-0.0126,-0.0126,-0.0126,-0.0126,-0.0126,-0.0542,-0.0529,-0.0537,-0.051,-0.0497,-0.0449,-0.0342,-0.0291,-0.0216,-0.0135,-0.0132,-0.0122,-0.0121,-0.014,-0.0127,-0.0127,-0.0127,-0.0127,-0.0127,-0.0536,-0.0557,-0.0558,-0.0561,-0.0524,-0.0478,-0.0413,-0.0304,-0.025,-0.0203,-0.0135,-0.0135,-0.0138,-0.0137,-0.0157,-0.0149,-0.0149,-0.0149,0,-0.0549,-0.0554,-0.0565,-0.0562,-0.0522,-0.0477,-0.0379,-0.0325,-0.0239,-0.0205,-0.0266,-0.0193,-0.019,-0.0199,-0.0198,-0.0224,0,0,0,-0.055,-0.0554,-0.0559,-0.0559,-0.051,-0.0395,-0.0341,-0.0296,-0.0237,-0.022,-0.0148,-0.0148,-0.0223,-0.0131,-0.0134,-0.0133,-0.0164,0,0]}]]